Weather History for KCWI - November, 2010

Change the Weather History Date:

Saturday, November 6, 2010

  Actual Average (KDVN) Record (KDVN)
Temperature  
Mean Temperature 34 °F 44 °F  
Max Temperature 48 °F 53 °F - ()
Min Temperature 19 °F 34 °F - ()
Degree Days  
Heating Degree Days 32 21  
Month to date heating degree days 122  
Since 1 July heating degree days 682  
Cooling Degree Days 0 0  
Month to date cooling degree days 0  
Year to date cooling degree days 786  
Moisture  
Dew Point 19 °F    
Average Humidity 60    
Maximum Humidity 100    
Minimum Humidity 31    
Precipitation  
Precipitation 0.00 in 0.10 in - ()
Month to date precipitation 0.69  
Year to date precipitation 32.54  
Snow  
Snow 0.00 in - - ()
Month to date snowfall  
Since 1 July snowfall  
Since 1 September snowfall  
Snow Depth -    
Sea Level Pressure  
Sea Level Pressure 30.31 in    
Wind  
Wind Speed 5 mph (SSW)    
Max Wind Speed 12 mph    
Max Gust Speed -    
Visibility 10 miles    
Events      
T = Trace of Precipitation, MM = Missing Value Source: NWS Daily Summary

Daily Weather History Graph

Daily Weather History Graph

Search for Another Location

Airport or City:

Trip Planner

Search our weather history database for the weather conditions in past years. The results will help you decide how hot, cold, wet, or windy it might be!

Date:

Astronomy

Nov. 06, 2010 Rise Set
Actual Time 7:39 AM CDT 5:49 PM CDT
Civil Twilight 7:10 AM CDT 6:18 PM CDT
Nautical Twilight 6:37 AM CDT 6:52 PM CDT
Astronomical Twilight 6:04 AM CDT 7:24 PM CDT
Moon 8:18 AM CDT (11/6) 5:55 PM CDT (11/6)
Length of Visible Light 11h 08m
Length of Day
10h 09m
New Moon, 0% of the Moon is Illuminated
Nov 6
New Moon
Nov 13
First Quarter
Nov 21
Full
Nov 28
Last Quarter
Dec 5
New

Hourly Weather History & Observations

Time (CDT) Temp. Windchill Dew Point Humidity Pressure Visibility Wind Dir Wind Speed Gust Speed Precip Events Conditions
12:15 AM 26.6 °F 18.2 °F 17.6 °F 69% 30.22 in 10.0 mi North 8.1 mph - N/A   Clear
12:35 AM 26.6 °F 17.5 °F 17.6 °F 69% 30.23 in 10.0 mi North 9.2 mph - N/A   Clear
12:55 AM 24.8 °F 16.1 °F 17.6 °F 74% 30.24 in 10.0 mi North 8.1 mph - N/A   Clear
1:15 AM 26.6 °F 19.1 °F 17.6 °F 69% 30.24 in 10.0 mi North 6.9 mph - N/A   Clear
1:35 AM 24.8 °F - 17.6 °F 74% 30.24 in 10.0 mi Calm Calm - N/A   Clear
1:55 AM 24.8 °F 20.5 °F 17.6 °F 74% 30.24 in 10.0 mi North 3.5 mph - N/A   Clear
2:15 AM 24.8 °F 19.1 °F 17.6 °F 74% 30.24 in 10.0 mi North 4.6 mph - N/A   Clear
2:35 AM 24.8 °F - 15.8 °F 69% 30.25 in 10.0 mi Calm Calm - N/A   Clear
2:55 AM 21.2 °F - 19.4 °F 93% 30.26 in 10.0 mi Calm Calm - N/A   Clear
3:15 AM 21.2 °F - 17.6 °F 86% 30.26 in 10.0 mi Calm Calm - N/A   Clear
3:35 AM 21.2 °F - 15.8 °F 80% 30.25 in 10.0 mi Calm Calm - N/A   Clear
3:55 AM 23.0 °F - 14.0 °F 68% 30.26 in 10.0 mi Calm Calm - N/A   Clear
4:15 AM 23.0 °F - 15.8 °F 74% 30.27 in 10.0 mi Calm Calm - N/A   Clear
4:35 AM 21.2 °F - 15.8 °F 80% 30.27 in 10.0 mi Calm Calm - N/A   Clear
4:55 AM 21.2 °F 16.4 °F 15.8 °F 80% 30.27 in 10.0 mi WNW 3.5 mph - N/A   Clear
5:15 AM 23.0 °F - 15.8 °F 74% 30.27 in 10.0 mi Calm Calm - N/A   Clear
5:35 AM 21.2 °F 16.4 °F 17.6 °F 86% 30.29 in 10.0 mi WNW 3.5 mph - N/A   Clear
5:55 AM 21.2 °F 16.4 °F 19.4 °F 93% 30.30 in 10.0 mi WNW 3.5 mph - N/A   Clear
6:15 AM 19.4 °F - 19.4 °F 100% 30.30 in 10.0 mi Calm Calm - N/A   Clear
6:35 AM 19.4 °F - 19.4 °F 100% 30.31 in 10.0 mi Calm Calm - N/A   Clear
6:55 AM 21.2 °F - 19.4 °F 93% 30.32 in 10.0 mi Calm Calm - N/A   Clear
7:15 AM 21.2 °F - 17.6 °F 86% 30.33 in 10.0 mi Calm Calm - N/A   Clear
7:35 AM 21.2 °F - 17.6 °F 86% 30.33 in 10.0 mi Calm Calm - N/A   Clear
7:55 AM 23.0 °F - 19.4 °F 86% 30.34 in 10.0 mi Calm Calm - N/A   Clear
8:15 AM 23.0 °F - 19.4 °F 86% 30.34 in 10.0 mi Calm Calm - N/A   Clear
8:35 AM 24.8 °F - 19.4 °F 80% 30.35 in 10.0 mi Calm Calm - N/A   Clear
8:55 AM 26.6 °F - 21.2 °F 80% 30.36 in 10.0 mi Calm Calm - N/A   Clear
9:15 AM 28.4 °F - 23.0 °F 80% 30.37 in 10.0 mi Calm Calm - N/A   Clear
9:35 AM 30.2 °F 26.7 °F 23.0 °F 75% 30.36 in 10.0 mi SSW 3.5 mph - N/A   Clear
9:55 AM 33.8 °F 29.6 °F 24.8 °F 70% 30.37 in 10.0 mi South 4.6 mph - N/A   Clear
10:15 AM 35.6 °F 30.7 °F 21.2 °F 56% 30.37 in 10.0 mi South 5.8 mph - N/A   Clear
10:35 AM 37.4 °F 32.1 °F 21.2 °F 52% 30.38 in 10.0 mi South 6.9 mph - N/A   Clear
10:55 AM 39.2 °F 33.6 °F 21.2 °F 49% 30.38 in 10.0 mi South 8.1 mph - N/A   Clear
11:15 AM 41.0 °F 35.8 °F 19.4 °F 42% 30.38 in 10.0 mi SSW 8.1 mph - N/A   Clear
11:35 AM 42.8 °F 38.0 °F 17.6 °F 36% 30.38 in 10.0 mi SSW 8.1 mph - N/A   Clear
11:55 AM 42.8 °F 38.6 °F 17.6 °F 36% 30.37 in 10.0 mi SSW 6.9 mph - N/A   Clear
12:15 PM 44.6 °F 39.2 °F 17.6 °F 34% 30.36 in 10.0 mi South 10.4 mph - N/A   Clear
12:35 PM 44.6 °F 38.8 °F 15.8 °F 31% 30.35 in 10.0 mi South 11.5 mph - N/A   Clear
12:55 PM 44.6 °F 39.2 °F 17.6 °F 34% 30.35 in 10.0 mi South 10.4 mph - N/A   Clear
1:15 PM 44.6 °F 38.8 °F 19.4 °F 37% 30.35 in 10.0 mi South 11.5 mph - N/A   Clear
1:35 PM 46.4 °F 41.1 °F 19.4 °F 34% 30.34 in 10.0 mi South 11.5 mph - N/A   Clear
1:55 PM 46.4 °F 41.9 °F 19.4 °F 34% 30.33 in 10.0 mi SSW 9.2 mph - N/A   Clear
2:15 PM 46.4 °F 41.9 °F 17.6 °F 32% 30.32 in 10.0 mi South 9.2 mph - N/A   Clear
2:35 PM 48.2 °F - 19.4 °F 32% 30.31 in 10.0 mi South 10.4 mph - N/A   Clear
3:15 PM 48.2 °F - 19.4 °F 32% 30.31 in 10.0 mi South 11.5 mph - N/A   Clear
3:35 PM 48.2 °F - 19.4 °F 32% 30.30 in 10.0 mi South 9.2 mph - N/A   Clear
3:55 PM 48.2 °F - 19.4 °F 32% 30.30 in 10.0 mi SSE 10.4 mph - N/A   Clear
4:15 PM 48.2 °F - 19.4 °F 32% 30.30 in 10.0 mi SSE 10.4 mph - N/A   Clear
4:35 PM 46.4 °F 41.5 °F 19.4 °F 34% 30.30 in 10.0 mi South 10.4 mph - N/A   Clear
4:55 PM 46.4 °F 41.5 °F 21.2 °F 37% 30.29 in 10.0 mi South 10.4 mph - N/A   Clear
5:15 PM 46.4 °F 42.4 °F 21.2 °F 37% 30.29 in 10.0 mi South 8.1 mph - N/A   Clear
5:35 PM 44.6 °F 39.7 °F 21.2 °F 39% 30.28 in 10.0 mi South 9.2 mph - N/A   Clear
5:55 PM 41.0 °F 35.2 °F 21.2 °F 45% 30.28 in 10.0 mi South 9.2 mph - N/A   Clear
6:15 PM 41.0 °F 35.8 °F 21.2 °F 45% 30.28 in 10.0 mi South 8.1 mph - N/A   Clear
6:35 PM 41.0 °F 35.2 °F 21.2 °F 45% 30.28 in 10.0 mi South 9.2 mph - N/A   Clear
6:55 PM 41.0 °F 35.2 °F 21.2 °F 45% 30.27 in 10.0 mi South 9.2 mph - N/A   Clear
7:15 PM 41.0 °F 35.2 °F 21.2 °F 45% 30.28 in 10.0 mi South 9.2 mph - N/A   Clear
7:35 PM 39.2 °F 33.0 °F 21.2 °F 49% 30.28 in 10.0 mi South 9.2 mph - N/A   Clear
7:55 PM 39.2 °F 33.0 °F 21.2 °F 49% 30.27 in 10.0 mi SSE 9.2 mph - N/A   Clear
8:15 PM 39.2 °F 33.0 °F 21.2 °F 49% 30.27 in 10.0 mi South 9.2 mph - N/A   Clear
8:35 PM 39.2 °F 32.5 °F 21.2 °F 49% 30.27 in 10.0 mi South 10.4 mph - N/A   Clear
8:55 PM 39.2 °F 33.0 °F 21.2 °F 49% 30.28 in 10.0 mi SSE 9.2 mph - N/A   Clear
9:15 PM 37.4 °F 31.4 °F 21.2 °F 52% 30.28 in 10.0 mi SSE 8.1 mph - N/A   Clear
9:35 PM 39.2 °F 33.6 °F 21.2 °F 49% 30.28 in 10.0 mi SSE 8.1 mph - N/A   Clear
9:55 PM 39.2 °F 32.5 °F 21.2 °F 49% 30.27 in 10.0 mi SSE 10.4 mph - N/A   Clear
10:15 PM 37.4 °F 30.3 °F 21.2 °F 52% 30.27 in 10.0 mi SSE 10.4 mph - N/A   Clear
10:35 PM 37.4 °F 30.8 °F 21.2 °F 52% 30.27 in 10.0 mi South 9.2 mph - N/A   Clear
11:35 PM 35.6 °F 29.9 °F 21.2 °F 56% 30.27 in 10.0 mi South 6.9 mph - N/A   Clear
11:55 PM 35.6 °F 29.9 °F 21.2 °F 56% 30.27 in 10.0 mi South 6.9 mph - N/A   Clear